sat.trackr.live / text

‹ back to catalog

TDRS 7

NORAD 23613 · 1995-035B

PAYLOAD ACTIVE UNKNOWN

§ Identity

Operator
Country
US
Launch date
1995-07-13
Launch site
AFETR
Launch vehicle
Mass (kg)
RCS (m²)
22.39

Purposes: comms

External: N2YO · Heavens-Above · Gunter

§ Orbital elements

Epoch: 2026-09-12T15:12:31.115808Z

Period
1,436.06 min
Inclination
13.3015°
Eccentricity
0.0011261
Mean motion
1.00274019 rev/d
Perigee alt
35,738.5 km
Apogee alt
35,833.4 km
Semi-major
42,164.1 km
B*
0.0000e+0
RAAN
347.5779°
Arg perigee
99.0640°
Mean anomaly
222.3739°
Rev number
11,412

§ Raw data

TDRS 71 23613U 95035B   26255.63369347 -.00000251  00000+0  00000+0 0  99952 23613  13.3015 347.5779 0011261  99.0640 222.3739  1.00274019114122

JSON: /api/v1/satellites/23613 · /tle

For live sub-satellite position, see the globe view (requires WebGL).

§ Visibility from observer

Set your observer location to see the next 7 days of passes ≥ 10°. The values pass through the URL so the page stays shareable.

No JS? Fill the form by hand. The geolocation button needs JavaScript.